CZ-2C R/B (53131 NORAD) Tracking and Keplerian Element Data

This shows tracking and keplerian element data for the satellite.

Feedback or suggestion? Click here.




ElementValue
Catalog53131
NameCZ-2C R/B
Epoch Orbit8441
Epoch Day12.89253522
Epoch Year2024
RAAN39.1509
Inclination97.3275
Eccentricity0.0022546
Argument of Perigee174.7175
Mean Anonmoly185.4329
Mean Motion15.68505912
Decay Rate0.00072825
L11 53131U 22082D 24012.89253522 .00072825 00000+0 63303-3 0 9993
L22 53131 97.3275 39.1509 0022546 174.7175 185.4329 15.68505912 84417



Live tracking and technical data element details for CZ-2C R/B (NORAD 53131). CZ-2C R/B can be tracked NOW for your location showing map with azimuth and elevation plus other details from your city location.







IsCatalogInMostPopularTable: catalog: 53131, numindb: 19
Update: records affected: 1



GetName: 53131 CZ-2C R/B

Hit Count: updated at: Mon, 15 Apr 2024 00:04:58 GMT